| time (UTC) | temp F | wind direction | speed MPH | gust MPH | rain 1hr in | rain 24hr in | rain mn in | humidity % | barometer mb |
| 20260906194411 | 87 | 79 | 7.0 | 8.0 | 0.00 | 0.00 | 0.00 | 56 | 1014.4 |
| 20260906193907 | 87 | 76 | 7.0 | 9.0 | 0.00 | 0.00 | 0.00 | 56 | 1014.3 |
| 20260906193401 | 87 | 79 | 9.0 | 10.0 | 0.00 | 0.00 | 0.00 | 57 | 1014.5 |
| 20260906192857 | 86 | 107 | 7.0 | 9.0 | 0.00 | 0.00 | 0.00 | 58 | 1014.4 |
| 20260906192351 | 86 | 76 | 2.0 | 9.0 | 0.00 | 0.00 | 0.00 | 58 | 1014.7 |
| 20260906191850 | 86 | 94 | 5.0 | 7.0 | 0.00 | 0.00 | 0.00 | 58 | 1015.0 |
| 20260906191345 | 86 | 88 | 7.0 | 8.0 | 0.00 | 0.00 | 0.00 | 59 | 1014.9 |
| 20260906190844 | 86 | 105 | 5.0 | 7.0 | 0.00 | 0.00 | 0.00 | 59 | 1015.0 |
| 20260906190344 | 85 | 86 | 2.0 | 10.0 | 0.00 | 0.00 | 0.00 | 60 | 1015.4 |
| 20260906185839 | 85 | 84 | 7.0 | 10.0 | 0.00 | 0.00 | 0.00 | 60 | 1015.2 |
| 20260906185337 | 85 | 92 | 6.0 | 9.0 | 0.00 | 0.00 | 0.00 | 60 | 1015.2 |
| 20260906184832 | 85 | 81 | 4.0 | 8.0 | 0.00 | 0.00 | 0.00 | 60 | 1015.5 |
| 20260906184327 | 85 | 88 | 3.0 | 7.0 | 0.00 | 0.00 | 0.00 | 62 | 1015.6 |
| 20260906183823 | 85 | 104 | 5.0 | 7.0 | 0.00 | 0.00 | 0.00 | 61 | 1015.8 |
| 20260906183319 | 85 | 96 | 4.0 | 6.0 | 0.00 | 0.00 | 0.00 | 61 | 1015.7 |
| 20260906182819 | 85 | 61 | 2.0 | 5.0 | 0.00 | 0.00 | 0.00 | 61 | 1015.9 |
| 20260906182315 | 85 | 45 | 2.0 | 7.0 | 0.00 | 0.00 | 0.00 | 60 | 1016.1 |
| 20260906181814 | 86 | 53 | 6.0 | 8.0 | 0.00 | 0.00 | 0.00 | 60 | 1016.1 |
| 20260906181311 | 86 | 36 | 6.0 | 9.0 | 0.00 | 0.00 | 0.00 | 60 | 1016.2 |
| 20260906180806 | 86 | 53 | 3.0 | 9.0 | 0.00 | 0.00 | 0.00 | 59 | 1016.5 |
| 20260906180301 | 87 | 62 | 4.0 | 8.0 | 0.00 | 0.00 | 0.00 | 58 | 1016.4 |
| 20260906175758 | 87 | 68 | 4.0 | 7.0 | 0.00 | 0.00 | 0.00 | 58 | 1016.3 |
| 20260906175254 | 88 | 80 | 5.0 | 8.0 | 0.00 | 0.00 | 0.00 | 57 | 1016.8 |
| 20260906174753 | 88 | 111 | 1.0 | 3.0 | 0.00 | 0.00 | 0.00 | 57 | 1016.9 |
| 20260906174252 | 87 | 128 | 4.0 | 8.0 | 0.00 | 0.00 | 0.00 | 59 | 1016.9 |
| 20260906173747 | 87 | 88 | 4.0 | 8.0 | 0.00 | 0.00 | 0.00 | 58 | 1017.1 |
| 20260906173243 | 86 | 65 | 3.0 | 7.0 | 0.00 | 0.00 | 0.00 | 60 | 1016.9 |
| 20260906172742 | 86 | 83 | 4.0 | 5.0 | 0.00 | 0.00 | 0.00 | 60 | 1017.2 |
| 20260906172237 | 85 | 92 | 2.0 | 6.0 | 0.00 | 0.00 | 0.00 | 62 | 1017.3 |
| 20260906171732 | 85 | 138 | 4.0 | 8.0 | 0.00 | 0.00 | 0.00 | 62 | 1017.1 |
| 20260906171228 | 86 | 118 | 4.0 | 9.0 | 0.00 | 0.00 | 0.00 | 61 | 1017.5 |
| 20260906170724 | 86 | 79 | 4.0 | 11.0 | 0.00 | 0.00 | 0.00 | 60 | 1017.4 |
| 20260906170219 | 85 | 150 | 3.0 | 10.0 | 0.00 | 0.00 | 0.00 | 62 | 1017.4 |
| 20260906165715 | 86 | 97 | 4.0 | 9.0 | 0.00 | 0.00 | 0.00 | 61 | 1017.5 |
| 20260906165210 | 86 | 63 | 5.0 | 8.0 | 0.00 | 0.00 | 0.00 | 61 | 1017.5 |
| 20260906164709 | 86 | 91 | 4.0 | 8.0 | 0.00 | 0.00 | 0.00 | 61 | 1017.4 |
| 20260906164204 | 86 | 71 | 3.0 | 9.0 | 0.00 | 0.00 | 0.00 | 61 | 1017.5 |
| 20260906163700 | 85 | 71 | 3.0 | 5.0 | 0.00 | 0.00 | 0.00 | 63 | 1017.7 |
| 20260906163156 | 85 | 319 | 5.0 | 10.0 | 0.00 | 0.00 | 0.00 | 63 | 1017.8 |
| 20260906162653 | 85 | 86 | 3.0 | 7.0 | 0.00 | 0.00 | 0.00 | 64 | 1017.6 |
| 20260906162152 | 83 | 93 | 1.0 | 8.0 | 0.00 | 0.00 | 0.00 | 67 | 1017.9 |
| 20260906161647 | 82 | 84 | 3.0 | 5.0 | 0.00 | 0.00 | 0.00 | 68 | 1017.8 |
| 20260906161146 | 82 | 43 | 2.0 | 10.0 | 0.00 | 0.00 | 0.00 | 69 | 1017.8 |
| 20260906160645 | 81 | 53 | 3.0 | 8.0 | 0.00 | 0.00 | 0.00 | 70 | 1017.9 |
| 20260906160144 | 81 | 65 | 3.0 | 8.0 | 0.00 | 0.00 | 0.00 | 70 | 1017.9 |
| 20260906155642 | 80 | 114 | 1.0 | 5.0 | 0.00 | 0.00 | 0.00 | 71 | 1017.7 |
| 20260906155138 | 81 | 31 | 5.0 | 7.0 | 0.00 | 0.00 | 0.00 | 71 | 1017.8 |
| 20260906154633 | 80 | 120 | 1.0 | 5.0 | 0.00 | 0.00 | 0.00 | 72 | 1017.8 |
| 20260906154133 | 81 | 71 | 3.0 | 6.0 | 0.00 | 0.00 | 0.00 | 71 | 1017.7 |
| 20260906153631 | 80 | 78 | 4.0 | 6.0 | 0.00 | 0.00 | 0.00 | 71 | 1017.6 |
| 20260906153127 | 81 | 102 | 4.0 | 10.0 | 0.00 | 0.00 | 0.00 | 71 | 1017.5 |
| 20260906152621 | 80 | 107 | 1.0 | 2.0 | 0.00 | 0.00 | 0.00 | 71 | 1017.7 |
| 20260906152115 | 80 | 112 | 1.0 | 7.0 | 0.00 | 0.00 | 0.00 | 72 | 1017.7 |
| 20260906151610 | 81 | 64 | 2.0 | 3.0 | 0.00 | 0.00 | 0.00 | 71 | 1017.5 |
| 20260906151106 | 80 | 158 | 1.0 | 6.0 | 0.00 | 0.00 | 0.00 | 72 | 1017.5 |
| 20260906150601 | 80 | 98 | 1.0 | 3.0 | 0.00 | 0.00 | 0.00 | 72 | 1017.3 |
| 20260906150056 | 80 | 97 | 1.0 | 8.0 | 0.00 | 0.00 | 0.00 | 72 | 1017.4 |
| 20260906145555 | 79 | 127 | 1.0 | 3.0 | 0.00 | 0.00 | 0.00 | 73 | 1017.5 |
| 20260906145050 | 79 | 46 | 1.0 | 2.0 | 0.00 | 0.00 | 0.00 | 73 | 1017.4 |
| 20260906144544 | 79 | 93 | 1.0 | 6.0 | 0.00 | 0.00 | 0.00 | 73 | 1017.2 |
| 20260906144040 | 78 | 155 | 1.0 | 3.0 | 0.00 | 0.00 | 0.00 | 73 | 1017.3 |
| 20260906143534 | 79 | 135 | 2.0 | 6.0 | 0.00 | 0.00 | 0.00 | 72 | 1017.5 |
| 20260906143031 | 79 | 68 | 3.0 | 6.0 | 0.00 | 0.00 | 0.00 | 71 | 1017.3 |
| 20260906142525 | 78 | 193 | 2.0 | 3.0 | 0.00 | 0.00 | 0.00 | 71 | 1017.6 |
| 20260906142021 | 78 | 120 | 0.0 | 2.0 | 0.00 | 0.00 | 0.00 | 71 | 1017.4 |
| 20260906141519 | 78 | 266 | 1.0 | 2.0 | 0.00 | 0.00 | 0.00 | 72 | 1017.5 |
| 20260906141015 | 77 | 302 | 0.0 | 0.0 | 0.00 | 0.00 | 0.00 | 72 | 1017.5 |
| 20260906140509 | 77 | 302 | 4.0 | 6.0 | 0.00 | 0.00 | 0.00 | 72 | 1017.4 |
| 20260906140008 | 77 | 300 | 0.0 | 3.0 | 0.00 | 0.00 | 0.00 | 72 | 1017.4 |
| 20260906135505 | 76 | 298 | 5.0 | 8.0 | 0.00 | 0.00 | 0.00 | 74 | 1017.5 |
| 20260906135001 | 76 | 307 | 7.0 | 10.0 | 0.00 | 0.00 | 0.00 | 76 | 1017.5 |
| 20260906134457 | 77 | 137 | 1.0 | 1.0 | 0.00 | 0.00 | 0.00 | 77 | 1017.1 |
| 20260906133957 | 76 | 137 | 1.0 | 1.0 | 0.00 | 0.00 | 0.00 | 77 | 1016.9 |
| 20260906133453 | 76 | 138 | 1.0 | 1.0 | 0.00 | 0.00 | 0.00 | 77 | 1016.5 |
| 20260906132948 | 76 | 139 | 0.0 | 0.0 | 0.00 | 0.00 | 0.00 | 78 | 1016.5 |
| 20260906132443 | 76 | 140 | 0.0 | 0.0 | 0.00 | 0.00 | 0.00 | 79 | 1016.2 |
| 20260906131938 | 76 | 141 | 0.0 | 0.0 | 0.00 | 0.00 | 0.00 | 78 | 1016.2 |
| 20260906131434 | 76 | 152 | 0.0 | 0.0 | 0.00 | 0.00 | 0.00 | 77 | 1016.2 |
| 20260906130930 | 75 | 152 | 0.0 | 0.0 | 0.00 | 0.00 | 0.00 | 76 | 1016.1 |
| 20260906130429 | 75 | 152 | 0.0 | 0.0 | 0.00 | 0.00 | 0.00 | 78 | 1015.9 |
| 20260906125929 | 74 | 152 | 0.0 | 0.0 | 0.00 | 0.00 | 0.00 | 79 | 1016.0 |
| 20260906125426 | 75 | 152 | 0.0 | 0.0 | 0.00 | 0.00 | 0.00 | 80 | 1015.9 |
| 20260906124926 | 74 | 152 | 0.0 | 0.0 | 0.00 | 0.00 | 0.00 | 79 | 1015.6 |
| 20260906124422 | 74 | 152 | 0.0 | 0.0 | 0.00 | 0.00 | 0.00 | 80 | 1015.7 |
| 20260906123916 | 73 | 152 | 0.0 | 0.0 | 0.00 | 0.00 | 0.00 | 80 | 1015.5 |
| 20260906123416 | 73 | 152 | 0.0 | 0.0 | 0.00 | 0.00 | 0.00 | 80 | 1015.7 |
| 20260906122916 | 72 | 152 | 0.0 | 0.0 | 0.00 | 0.00 | 0.00 | 81 | 1015.6 |
| 20260906122410 | 72 | 152 | 0.0 | 0.0 | 0.00 | 0.00 | 0.00 | 81 | 1015.4 |
| 20260906121908 | 72 | 152 | 0.0 | 0.0 | 0.00 | 0.00 | 0.00 | 82 | 1015.2 |
| 20260906121403 | 72 | 152 | 0.0 | 0.0 | 0.00 | 0.00 | 0.00 | 81 | 1015.2 |
| 20260906120859 | 72 | 152 | 0.0 | 0.0 | 0.00 | 0.00 | 0.00 | 81 | 1014.9 |
| 20260906120355 | 72 | 152 | 0.0 | 0.0 | 0.00 | 0.00 | 0.00 | 81 | 1014.9 |
| 20260906115851 | 72 | 152 | 0.0 | 0.0 | 0.00 | 0.00 | 0.00 | 81 | 1014.6 |
| 20260906115346 | 72 | 152 | 0.0 | 0.0 | 0.00 | 0.00 | 0.00 | 80 | 1014.7 |
| 20260906114845 | 73 | 152 | 0.0 | 0.0 | 0.00 | 0.00 | 0.00 | 80 | 1014.7 |
| 20260906114340 | 73 | 154 | 0.0 | 0.0 | 0.00 | 0.00 | 0.00 | 80 | 1014.7 |
| 20260906113835 | 72 | 155 | 0.0 | 0.0 | 0.00 | 0.00 | 0.00 | 80 | 1014.7 |
| 20260906113334 | 73 | 155 | 0.0 | 0.0 | 0.00 | 0.00 | 0.00 | 79 | 1014.6 |
| 20260906112830 | 73 | 156 | 0.0 | 0.0 | 0.00 | 0.00 | 0.00 | 79 | 1014.6 |
| 20260906112326 | 73 | 156 | 0.0 | 0.0 | 0.00 | 0.00 | 0.00 | 79 | 1014.5 |
| 20260906111826 | 73 | 157 | 0.0 | 0.0 | 0.00 | 0.00 | 0.00 | 79 | 1014.4 |
| 20260906111320 | 73 | 162 | 0.0 | 0.0 | 0.00 | 0.00 | 0.00 | 79 | 1014.3 |
| 20260906110815 | 73 | 168 | 0.0 | 0.0 | 0.00 | 0.00 | 0.00 | 79 | 1014.4 |
| 20260906110311 | 73 | 179 | 0.0 | 0.0 | 0.00 | 0.00 | 0.00 | 79 | 1014.2 |
| 20260906105810 | 72 | 156 | 0.0 | 0.0 | 0.00 | 0.00 | 0.00 | 80 | 1014.1 |
| 20260906105306 | 72 | 153 | 0.0 | 1.0 | 0.00 | 0.00 | 0.00 | 80 | 1014.2 |
| 20260906104801 | 72 | 153 | 0.0 | 1.0 | 0.00 | 0.00 | 0.00 | 80 | 1014.2 |
| 20260906104259 | 72 | 154 | 0.0 | 0.0 | 0.00 | 0.00 | 0.00 | 80 | 1014.2 |
| 20260906103757 | 72 | 155 | 0.0 | 1.0 | 0.00 | 0.00 | 0.00 | 80 | 1014.2 |
| 20260906103252 | 72 | 152 | 0.0 | 1.0 | 0.00 | 0.00 | 0.00 | 80 | 1014.1 |
| 20260906102748 | 72 | 156 | 0.0 | 0.0 | 0.00 | 0.00 | 0.00 | 80 | 1014.1 |
| 20260906102246 | 73 | 154 | 0.0 | 0.0 | 0.00 | 0.00 | 0.00 | 79 | 1014.5 |
| 20260906101742 | 73 | 154 | 0.0 | 0.0 | 0.00 | 0.00 | 0.00 | 79 | 1014.5 |
| 20260906101237 | 73 | 155 | 0.0 | 0.0 | 0.00 | 0.00 | 0.00 | 78 | 1014.4 |
| 20260906100732 | 74 | 157 | 0.0 | 0.0 | 0.00 | 0.00 | 0.00 | 77 | 1014.3 |
| 20260906100231 | 74 | 158 | 0.0 | 0.0 | 0.00 | 0.00 | 0.00 | 77 | 1014.2 |
| 20260906095727 | 74 | 158 | 0.0 | 0.0 | 0.00 | 0.00 | 0.00 | 77 | 1014.4 |
| 20260906095222 | 74 | 155 | 0.0 | 0.0 | 0.00 | 0.00 | 0.00 | 77 | 1014.2 |
| 20260906094721 | 74 | 155 | 0.0 | 0.0 | 0.00 | 0.00 | 0.00 | 77 | 1014.4 |
| 20260906094216 | 74 | 153 | 0.0 | 0.0 | 0.00 | 0.00 | 0.00 | 77 | 1014.4 |
| 20260906093713 | 74 | 153 | 0.0 | 0.0 | 0.00 | 0.00 | 0.00 | 77 | 1014.0 |
| 20260906093208 | 74 | 153 | 0.0 | 0.0 | 0.00 | 0.00 | 0.00 | 77 | 1014.2 |
| 20260906092703 | 74 | 154 | 0.0 | 0.0 | 0.00 | 0.00 | 0.00 | 77 | 1014.1 |
| 20260906092202 | 73 | 152 | 0.0 | 0.0 | 0.00 | 0.00 | 0.00 | 78 | 1014.1 |
| 20260906091659 | 73 | 152 | 0.0 | 0.0 | 0.00 | 0.00 | 0.00 | 79 | 1014.3 |
| 20260906091155 | 73 | 136 | 0.0 | 0.0 | 0.00 | 0.00 | 0.00 | 79 | 1014.2 |
| 20260906090651 | 73 | 150 | 0.0 | 0.0 | 0.00 | 0.00 | 0.00 | 78 | 1014.0 |
| 20260906090150 | 74 | 145 | 0.0 | 0.0 | 0.00 | 0.00 | 0.00 | 78 | 1014.3 |
| 20260906085649 | 74 | 149 | 0.0 | 0.0 | 0.00 | 0.00 | 0.00 | 78 | 1014.2 |
| 20260906085143 | 74 | 147 | 0.0 | 0.0 | 0.00 | 0.00 | 0.00 | 78 | 1014.2 |
| 20260906084638 | 74 | 147 | 0.0 | 0.0 | 0.00 | 0.00 | 0.00 | 78 | 1014.2 |
| 20260906084137 | 74 | 154 | 0.0 | 0.0 | 0.00 | 0.00 | 0.00 | 78 | 1014.1 |
| 20260906083632 | 74 | 154 | 0.0 | 0.0 | 0.00 | 0.00 | 0.00 | 77 | 1014.1 |
| 20260906083127 | 74 | 155 | 0.0 | 0.0 | 0.00 | 0.00 | 0.00 | 77 | 1014.1 |
| 20260906082623 | 74 | 144 | 0.0 | 0.0 | 0.00 | 0.00 | 0.00 | 77 | 1013.9 |
| 20260906082118 | 74 | 144 | 0.0 | 0.0 | 0.00 | 0.00 | 0.00 | 77 | 1014.2 |
| 20260906081614 | 74 | 145 | 0.0 | 0.0 | 0.00 | 0.00 | 0.00 | 77 | 1014.1 |
| 20260906081109 | 74 | 146 | 0.0 | 0.0 | 0.00 | 0.00 | 0.00 | 78 | 1014.1 |
| 20260906080606 | 74 | 152 | 0.0 | 0.0 | 0.00 | 0.00 | 0.00 | 78 | 1014.1 |
| 20260906075555 | 74 | 150 | 0.0 | 0.0 | 0.00 | 0.00 | 0.00 | 80 | 1013.9 |
| 20260906075050 | 74 | 147 | 0.0 | 0.0 | 0.00 | 0.00 | 0.00 | 80 | 1014.2 |
| 20260906074545 | 74 | 145 | 0.0 | 0.0 | 0.00 | 0.00 | 0.00 | 79 | 1014.0 |
| 20260906074043 | 75 | 140 | 0.0 | 0.0 | 0.00 | 0.00 | 0.00 | 79 | 1014.2 |
| 20260906073538 | 75 | 138 | 0.0 | 0.0 | 0.00 | 0.00 | 0.00 | 79 | 1014.2 |
| 20260906073035 | 75 | 145 | 0.0 | 0.0 | 0.00 | 0.00 | 0.00 | 79 | 1014.2 |
| 20260906072529 | 75 | 106 | 0.0 | 0.0 | 0.00 | 0.00 | 0.00 | 79 | 1014.1 |
| 20260906072026 | 75 | 154 | 0.0 | 0.0 | 0.00 | 0.00 | 0.00 | 78 | 1014.1 |
| 20260906071521 | 75 | 152 | 0.0 | 0.0 | 0.00 | 0.00 | 0.00 | 78 | 1014.1 |
| 20260906071016 | 75 | 148 | 0.0 | 0.0 | 0.00 | 0.00 | 0.00 | 78 | 1014.2 |
| 20260906070512 | 75 | 148 | 0.0 | 0.0 | 0.00 | 0.00 | 0.00 | 78 | 1014.2 |
| 20260906070008 | 75 | 152 | 0.0 | 0.0 | 0.00 | 0.00 | 0.00 | 79 | 1014.2 |
| 20260906065502 | 75 | 154 | 0.0 | 0.0 | 0.00 | 0.00 | 0.00 | 80 | 1014.1 |
| 20260906064957 | 75 | 135 | 0.0 | 0.0 | 0.00 | 0.00 | 0.00 | 80 | 1014.3 |
| 20260906064453 | 75 | 150 | 0.0 | 0.0 | 0.00 | 0.00 | 0.00 | 81 | 1014.0 |
| 20260906063948 | 75 | 148 | 0.0 | 0.0 | 0.00 | 0.00 | 0.00 | 81 | 1014.0 |
| 20260906063444 | 75 | 145 | 0.0 | 1.0 | 0.00 | 0.00 | 0.00 | 82 | 1014.1 |
| 20260906062944 | 75 | 144 | 0.0 | 0.0 | 0.00 | 0.00 | 0.00 | 82 | 1014.1 |
| 20260906062439 | 75 | 143 | 0.0 | 1.0 | 0.00 | 0.00 | 0.00 | 82 | 1013.9 |
| 20260906061934 | 75 | 128 | 0.0 | 0.0 | 0.00 | 0.00 | 0.00 | 82 | 1014.0 |
| 20260906061430 | 75 | 125 | 0.0 | 0.0 | 0.00 | 0.00 | 0.00 | 83 | 1013.7 |
| 20260906060930 | 75 | 119 | 0.0 | 2.0 | 0.00 | 0.00 | 0.00 | 83 | 1013.9 |
| 20260906060427 | 75 | 116 | 1.0 | 2.0 | 0.00 | 0.00 | 0.00 | 84 | 1013.8 |
| 20260906055923 | 75 | 107 | 1.0 | 2.0 | 0.00 | 0.00 | 0.00 | 84 | 1013.7 |
| 20260906055419 | 75 | 117 | 0.0 | 2.0 | 0.00 | 0.00 | 0.00 | 84 | 1013.5 |
| 20260906054914 | 75 | 107 | 0.0 | 1.0 | 0.00 | 0.00 | 0.00 | 85 | 1013.5 |
| 20260906054409 | 75 | 111 | 0.0 | 2.0 | 0.00 | 0.00 | 0.00 | 86 | 1013.8 |
| 20260906053905 | 74 | 112 | 1.0 | 1.0 | 0.00 | 0.00 | 0.00 | 87 | 1013.7 |
| 20260906053400 | 74 | 113 | 2.0 | 2.0 | 0.00 | 0.00 | 0.00 | 88 | 1013.8 |
| 20260906052856 | 74 | 117 | 0.0 | 1.0 | 0.00 | 0.00 | 0.00 | 89 | 1013.7 |
| 20260906052352 | 74 | 119 | 0.0 | 0.0 | 0.00 | 0.00 | 0.00 | 90 | 1013.7 |
| 20260906051849 | 74 | 121 | 0.0 | 2.0 | 0.00 | 0.00 | 0.00 | 91 | 1013.3 |
| 20260906051348 | 74 | 125 | 0.0 | 0.0 | 0.00 | 0.00 | 0.00 | 91 | 1013.5 |
| 20260906050845 | 74 | 128 | 0.0 | 1.0 | 0.00 | 0.00 | 0.00 | 91 | 1013.8 |
| 20260906050339 | 74 | 134 | 1.0 | 1.0 | 0.00 | 0.00 | 0.00 | 91 | 1013.7 |
| 20260906045838 | 74 | 134 | 0.0 | 0.0 | 0.00 | 0.04 | 0.04 | 91 | 1013.8 |
| 20260906045332 | 74 | 135 | 0.0 | 1.0 | 0.00 | 0.04 | 0.04 | 91 | 1013.9 |
| 20260906044829 | 74 | 135 | 1.0 | 1.0 | 0.00 | 0.04 | 0.04 | 91 | 1013.7 |
| 20260906044323 | 75 | 137 | 1.0 | 1.0 | 0.00 | 0.04 | 0.04 | 91 | 1014.0 |
| 20260906043819 | 75 | 141 | 0.0 | 0.0 | 0.00 | 0.04 | 0.04 | 90 | 1014.0 |
| 20260906043315 | 75 | 140 | 0.0 | 1.0 | 0.00 | 0.04 | 0.04 | 90 | 1014.1 |
| 20260906042815 | 75 | 150 | 0.0 | 0.0 | 0.00 | 0.04 | 0.04 | 90 | 1014.2 |
| 20260906042314 | 75 | 150 | 0.0 | 0.0 | 0.00 | 0.04 | 0.04 | 90 | 1013.9 |
| 20260906041809 | 75 | 106 | 0.0 | 0.0 | 0.00 | 0.04 | 0.04 | 90 | 1013.9 |
| 20260906041304 | 75 | 155 | 0.0 | 1.0 | 0.00 | 0.04 | 0.04 | 89 | 1014.1 |
| 20260906040800 | 75 | 157 | 0.0 | 0.0 | 0.00 | 0.04 | 0.04 | 89 | 1014.0 |
| 20260906040255 | 75 | 157 | 0.0 | 1.0 | 0.00 | 0.04 | 0.04 | 90 | 1013.8 |
| 20260906035750 | 75 | 156 | 0.0 | 1.0 | 0.00 | 0.04 | 0.04 | 90 | 1013.8 |
| 20260906035246 | 75 | 155 | 0.0 | 1.0 | 0.00 | 0.04 | 0.04 | 90 | 1013.8 |
| 20260906034746 | 75 | 152 | 0.0 | 0.0 | 0.00 | 0.04 | 0.04 | 91 | 1013.8 |
| 20260906034241 | 75 | 145 | 0.0 | 0.0 | 0.00 | 0.04 | 0.04 | 91 | 1013.9 |
| 20260906033737 | 75 | 144 | 0.0 | 1.0 | 0.00 | 0.04 | 0.04 | 92 | 1013.8 |
| 20260906033236 | 75 | 157 | 0.0 | 0.0 | 0.00 | 0.04 | 0.04 | 92 | 1013.7 |
| 20260906032733 | 75 | 152 | 0.0 | 0.0 | 0.00 | 0.04 | 0.04 | 92 | 1013.8 |
| 20260906032232 | 75 | 157 | 0.0 | 0.0 | 0.00 | 0.04 | 0.04 | 92 | 1013.8 |
| 20260906031728 | 75 | 154 | 0.0 | 0.0 | 0.00 | 0.04 | 0.04 | 92 | 1013.4 |
| 20260906031224 | 75 | 152 | 0.0 | 0.0 | 0.00 | 0.04 | 0.04 | 91 | 1013.5 |
| 20260906030723 | 76 | 153 | 0.0 | 0.0 | 0.00 | 0.04 | 0.04 | 91 | 1013.4 |
| 20260906030218 | 75 | 147 | 0.0 | 0.0 | 0.00 | 0.04 | 0.04 | 91 | 1013.5 |
| 20260906025717 | 76 | 146 | 0.0 | 0.0 | 0.00 | 0.04 | 0.04 | 91 | 1013.3 |
| 20260906025212 | 76 | 146 | 0.0 | 0.0 | 0.00 | 0.04 | 0.04 | 91 | 1013.3 |
| 20260906024711 | 76 | 142 | 0.0 | 0.0 | 0.00 | 0.04 | 0.04 | 91 | 1013.3 |
| 20260906024210 | 76 | 147 | 0.0 | 0.0 | 0.00 | 0.04 | 0.04 | 90 | 1013.4 |
| 20260906023707 | 76 | 147 | 0.0 | 0.0 | 0.00 | 0.04 | 0.04 | 90 | 1013.5 |
| 20260906023207 | 76 | 138 | 0.0 | 1.0 | 0.00 | 0.04 | 0.04 | 90 | 1013.5 |
| 20260906022702 | 76 | 143 | 0.0 | 0.0 | 0.00 | 0.04 | 0.04 | 89 | 1013.1 |
| 20260906022158 | 76 | 143 | 0.0 | 0.0 | 0.00 | 0.04 | 0.04 | 89 | 1013.1 |
| 20260906021653 | 76 | 137 | 0.0 | 0.0 | 0.00 | 0.04 | 0.04 | 89 | 1013.1 |
| 20260906021152 | 77 | 140 | 0.0 | 1.0 | 0.00 | 0.04 | 0.04 | 89 | 1012.9 |
| 20260906020646 | 77 | 147 | 0.0 | 0.0 | 0.00 | 0.04 | 0.04 | 88 | 1012.8 |
| 20260906020142 | 77 | 143 | 0.0 | 1.0 | 0.00 | 0.04 | 0.04 | 88 | 1012.9 |
| 20260906015636 | 77 | 154 | 0.0 | 1.0 | 0.00 | 0.04 | 0.04 | 88 | 1013.1 |
| 20260906015134 | 77 | 146 | 1.0 | 1.0 | 0.00 | 0.04 | 0.04 | 88 | 1013.0 |
| 20260906014629 | 77 | 144 | 0.0 | 0.0 | 0.00 | 0.04 | 0.04 | 88 | 1012.6 |
| 20260906014125 | 77 | 138 | 0.0 | 0.0 | 0.00 | 0.04 | 0.04 | 88 | 1012.5 |
| 20260906013620 | 77 | 126 | 0.0 | 0.0 | 0.00 | 0.04 | 0.04 | 87 | 1012.5 |
| 20260906013116 | 77 | 136 | 0.0 | 0.0 | 0.00 | 0.04 | 0.04 | 86 | 1012.5 |
| 20260906012610 | 78 | 132 | 0.0 | 0.0 | 0.00 | 0.04 | 0.04 | 86 | 1012.4 |
| 20260906012105 | 78 | 166 | 0.0 | 0.0 | 0.00 | 0.04 | 0.04 | 85 | 1012.3 |
| 20260906011601 | 78 | 173 | 0.0 | 1.0 | 0.00 | 0.04 | 0.04 | 85 | 1012.4 |
| 20260906011101 | 79 | 213 | 1.0 | 2.0 | 0.00 | 0.04 | 0.04 | 84 | 1012.6 |
| 20260906010556 | 79 | 210 | 0.0 | 1.0 | 0.00 | 0.04 | 0.04 | 84 | 1012.6 |
| 20260906010052 | 79 | 165 | 0.0 | 0.0 | 0.00 | 0.04 | 0.04 | 84 | 1012.4 |
| 20260906005051 | 79 | 166 | 0.0 | 0.0 | 0.00 | 0.04 | 0.04 | 84 | 1012.4 |
| 20260906004550 | 79 | 166 | 0.0 | 0.0 | 0.00 | 0.04 | 0.04 | 84 | 1012.4 |
| 20260906004045 | 80 | 167 | 0.0 | 0.0 | 0.00 | 0.04 | 0.04 | 84 | 1012.6 |
| 20260906003540 | 80 | 168 | 0.0 | 0.0 | 0.00 | 0.04 | 0.04 | 83 | 1012.2 |
| 20260906003037 | 80 | 172 | 0.0 | 0.0 | 0.00 | 0.04 | 0.04 | 82 | 1012.4 |
| 20260906002531 | 79 | 168 | 0.0 | 0.0 | 0.00 | 0.04 | 0.04 | 82 | 1012.7 |
| 20260906002026 | 79 | 168 | 1.0 | 1.0 | 0.00 | 0.04 | 0.04 | 82 | 1012.3 |
| 20260906001521 | 79 | 166 | 0.0 | 0.0 | 0.00 | 0.04 | 0.04 | 83 | 1012.4 |
| 20260906001015 | 78 | 166 | 0.0 | 0.0 | 0.00 | 0.04 | 0.04 | 81 | 1012.4 |
| 20260906000512 | 79 | 171 | 0.0 | 0.0 | 0.00 | 0.04 | 0.04 | 81 | 1012.3 |
| 20260906000006 | 79 | 187 | 0.0 | 1.0 | 0.00 | 0.04 | 0.04 | 79 | 1012.3 |
| 20260905235500 | 78 | 221 | 0.0 | 3.0 | 0.00 | 0.04 | 0.04 | 79 | 1012.4 |
| 20260905234955 | 76 | 273 | 3.0 | 5.0 | 0.00 | 0.04 | 0.04 | 85 | 1012.6 |
| 20260905234450 | 75 | 252 | 3.0 | 5.0 | 0.00 | 0.04 | 0.04 | 89 | 1012.6 |
| 20260905233944 | 75 | 286 | 3.0 | 6.0 | 0.00 | 0.04 | 0.04 | 90 | 1012.6 |
| 20260905233440 | 75 | 256 | 3.0 | 5.0 | 0.00 | 0.04 | 0.04 | 91 | 1012.5 |
| 20260905232938 | 75 | 206 | 0.0 | 3.0 | 0.00 | 0.04 | 0.04 | 90 | 1012.5 |
| 20260905232435 | 75 | 237 | 1.0 | 2.0 | 0.05 | 0.04 | 0.04 | 89 | 1012.3 |
| 20260905231931 | 76 | 248 | 2.0 | 2.0 | 0.05 | 0.04 | 0.04 | 88 | 1012.4 |
| 20260905231426 | 77 | 226 | 1.0 | 2.0 | 0.14 | 0.03 | 0.03 | 85 | 1012.7 |
| 20260905230923 | 79 | 235 | 1.0 | 2.0 | 0.19 | 0.03 | 0.03 | 79 | 1012.9 |
| 20260905230421 | 83 | 200 | 0.0 | 6.0 | 0.05 | 0.01 | 0.01 | 69 | 1013.2 |
| 20260905225919 | 83 | 1 | 0.0 | 0.0 | 0.00 | 0.00 | 0.00 | 64 | 1013.1 |
| 20260905225415 | 85 | 297 | 1.0 | 2.0 | 0.00 | 0.00 | 0.00 | 61 | 1013.1 |
| 20260905224909 | 85 | 190 | 1.0 | 1.0 | 0.00 | 0.00 | 0.00 | 58 | 1012.7 |
| 20260905224405 | 85 | 207 | 1.0 | 3.0 | 0.00 | 0.00 | 0.00 | 59 | 1012.6 |
| 20260905223900 | 86 | 256 | 2.0 | 5.0 | 0.00 | 0.00 | 0.00 | 58 | 1013.0 |
| 20260905223358 | 86 | 264 | 0.0 | 1.0 | 0.00 | 0.00 | 0.00 | 56 | 1012.9 |
| 20260905222858 | 86 | 125 | 0.0 | 3.0 | 0.00 | 0.00 | 0.00 | 57 | 1012.8 |
| 20260905222356 | 86 | 304 | 2.0 | 3.0 | 0.00 | 0.00 | 0.00 | 56 | 1012.7 |
| 20260905221853 | 85 | 152 | 1.0 | 2.0 | 0.00 | 0.00 | 0.00 | 58 | 1012.5 |
| 20260905221349 | 85 | 144 | 1.0 | 2.0 | 0.00 | 0.00 | 0.00 | 59 | 1012.7 |
| 20260905220845 | 85 | 116 | 1.0 | 3.0 | 0.00 | 0.00 | 0.00 | 58 | 1012.7 |
| 20260905220341 | 86 | 195 | 1.0 | 2.0 | 0.00 | 0.00 | 0.00 | 58 | 1012.6 |
| 20260905215840 | 86 | 86 | 0.0 | 6.0 | 0.00 | 0.00 | 0.00 | 56 | 1012.8 |
| 20260905215336 | 86 | 285 | 0.0 | 9.0 | 0.00 | 0.00 | 0.00 | 55 | 1012.6 |
| 20260905214832 | 87 | 128 | 6.0 | 9.0 | 0.00 | 0.00 | 0.00 | 56 | 1012.4 |
| 20260905214327 | 92 | 57 | 2.0 | 7.0 | 0.00 | 0.00 | 0.00 | 51 | 1012.6 |
| 20260905213822 | 97 | 98 | 1.0 | 6.0 | 0.00 | 0.00 | 0.00 | 37 | 1012.3 |
| 20260905213318 | 97 | 81 | 1.0 | 3.0 | 0.00 | 0.00 | 0.00 | 37 | 1012.4 |
| 20260905212813 | 97 | 143 | 1.0 | 3.0 | 0.00 | 0.00 | 0.00 | 37 | 1011.9 |
| 20260905212312 | 97 | 163 | 2.0 | 6.0 | 0.00 | 0.00 | 0.00 | 37 | 1011.7 |
| 20260905211808 | 97 | 198 | 3.0 | 5.0 | 0.00 | 0.00 | 0.00 | 37 | 1011.7 |
| 20260905211302 | 97 | 143 | 1.0 | 5.0 | 0.00 | 0.00 | 0.00 | 36 | 1011.9 |
| 20260905210759 | 98 | 134 | 0.0 | 6.0 | 0.00 | 0.00 | 0.00 | 36 | 1011.5 |
| 20260905210258 | 98 | 166 | 1.0 | 6.0 | 0.00 | 0.00 | 0.00 | 36 | 1011.7 |
| 20260905205757 | 98 | 130 | 2.0 | 5.0 | 0.00 | 0.00 | 0.00 | 36 | 1011.9 |
| 20260905205252 | 98 | 129 | 1.0 | 10.0 | 0.00 | 0.00 | 0.00 | 36 | 1012.1 |
| 20260905204751 | 99 | 107 | 2.0 | 10.0 | 0.00 | 0.00 | 0.00 | 36 | 1012.0 |
| 20260905204248 | 99 | 208 | 2.0 | 3.0 | 0.00 | 0.00 | 0.00 | 35 | 1012.1 |
| 20260905203746 | 100 | 202 | 2.0 | 3.0 | 0.00 | 0.00 | 0.00 | 35 | 1012.2 |
| 20260905203242 | 100 | 136 | 7.0 | 11.0 | 0.00 | 0.00 | 0.00 | 35 | 1012.1 |
| 20260905202737 | 100 | 148 | 1.0 | 10.0 | 0.00 | 0.00 | 0.00 | 36 | 1012.0 |
| 20260905202233 | 101 | 212 | 5.0 | 9.0 | 0.00 | 0.00 | 0.00 | 34 | 1012.1 |
| 20260905201728 | 100 | 149 | 2.0 | 7.0 | 0.00 | 0.00 | 0.00 | 35 | 1012.2 |
| 20260905201223 | 100 | 214 | 5.0 | 7.0 | 0.00 | 0.00 | 0.00 | 36 | 1012.2 |
| 20260905200718 | 100 | 359 | 2.0 | 8.0 | 0.00 | 0.00 | 0.00 | 36 | 1012.4 |
| 20260905200214 | 100 | 169 | 3.0 | 6.0 | 0.00 | 0.00 | 0.00 | 36 | 1012.5 |
| 20260905195712 | 99 | 171 | 0.0 | 6.0 | 0.00 | 0.00 | 0.00 | 36 | 1012.3 |
| 20260905195206 | 100 | 104 | 3.0 | 9.0 | 0.00 | 0.00 | 0.00 | 36 | 1012.4 |
| 20260905194702 | 102 | 138 | 2.0 | 5.0 | 0.00 | 0.00 | 0.00 | 35 | 1012.3 |